sat.trackr.live / text

‹ back to catalog

STARLINK-5841

NORAD 56493 · 2023-064AX

PAYLOAD ACTIVE UNKNOWN

§ Identity

Operator
Country
US
Launch date
2023-05-10
Launch site
AFWTR
Launch vehicle
Mass (kg)
RCS (m²)

Purposes: comms

External: N2YO · Heavens-Above · Gunter

§ Orbital elements

Epoch: 2026-05-24T17:16:34.001472Z

Period
96.11 min
Inclination
69.9996°
Eccentricity
0.0003072
Mean motion
14.98336069 rev/d
Perigee alt
569.9 km
Apogee alt
574.2 km
Semi-major
6,950.2 km
B*
-5.3439e-5
RAAN
252.7664°
Arg perigee
270.4194°
Mean anomaly
89.6613°
Rev number
16,811

§ Raw data

STARLINK-58411 56493U 23064AX  26144.71983798 -.00000731  00000+0 -53439-4 0  99912 56493  69.9996 252.7664 0003072 270.4194  89.6613 14.98336069168117

JSON: /api/v1/satellites/56493 · /tle

For live sub-satellite position, see the globe view (requires WebGL).

§ Visibility from observer

Set your observer location to see the next 7 days of passes ≥ 10°. The values pass through the URL so the page stays shareable.

No JS? Fill the form by hand. The geolocation button needs JavaScript.